Find Kosmos-1249

NORAD ID: 12319 Int'l Des: 1981-021 Owner: VMF Country: SU operational
LEOCIRCULAR

リアルタイム位置

3D地球を読み込み中...

Kosmos-1249について

説明を読み込み中...

次回通過

Passes for default location (London). Set your location on the main map for personalized predictions.

高度履歴

Loading altitude history...

軌道要素

1 12319U 81021A 26105.83919301 -.00000065 00000-0 20943-4 0 9990
2 12319 64.9637 304.1850 0066892 284.8778 74.4881 13.86771231286208
Epoch: Apr 15, 2026 • Age: 11 hours

現在のステータス

高度 948.8 km
速度 7.37 km/s
衛星直下点 -7.08°S, 170.3°E
打ち上げ日 Mar 5, 1981
運用期間 45.1 years
タイプ other

技術仕様

分類 Payload
質量 1154.00 kg
乾燥質量 1154.00 kg
総質量 4300.00 kg
長さ 5.80 m
直径 1.30 m
スパン 5.80 m
形状 Cyl
製造者 KOMET
バスタイプ US-A reactor
フェーズステータス In Orbit
所有者/国 VMF/SU

Most Searched